Wind_Speed
9 9 9 9 9 9 9 9 8 8 9 9 9 12 14 14 13 16 16 15 12 12 13 13 13 14 14 13 11 11 11 10 10
8 9 9 9 9 10 10 10 9 9 10 10 12 13 12 12 14 17 19 18 17 15 15 16 15 17 15 16 15 14 13 13 13
8 8 8 9 9 9 10 11 11 11 12 12 12 13 14 13 14 17 19 18 18 18 18 18 18 18 18 18 17 17 16 15 15
10 8 9 9 9 9 10 10 11 12 13 15 15 15 15 16 15 17 18 17 20 20 20 20 21 21 21 23 22 21 20 19 19
12 9 10 9 10 10 10 11 11 13 12 13 15 17 18 17 17 19 19 21 17 19 22 23 23 24 25 26 26 25 23 22 22
8 11 12 10 12 12 12 12 12 12 10 13 14 14 11 13 15 16 18 15 20 22 23 25 27 28 30 30 29 28 27 25 25
10 9 13 14 15 14 16 15 14 12 10 9 12 9 10 12 14 16 18 22 20 18 24 25 29 31 32 33 32 32 30 28 28
7 7 8 9 11 9 11 10 9 10 10 11 11 12 12 12 13 14 18 21 22 22 24 26 28 26 32 34 34 34 34 32 31
9 7 8 8 9 10 10 10 12 11 12 12 12 12 12 13 15 16 18 20 23 21 22 25 28 30 29 29 34 36 36 36 34
9 8 8 9 10 10 11 11 12 12 12 12 13 13 14 14 15 16 17 20 23 23 23 24 25 27 30 30 31 38 39 40 39
9 9 9 9 10 11 11 12 13 12 13 14 14 15 14 14 14 15 18 20 22 24 24 24 25 26 27 30 32 37 43 46 44
8 9 9 9 10 11 11 12 12 13 14 15 15 15 13 11 11 13 16 19 20 21 20 22 23 24 25 26 31 37 33 42 45
8 8 8 10 10 10 11 12 14 14 14 15 17 15 12 10 11 13 17 18 19 21 21 21 22 21 20 21 23 27 29 30 25
8 8 9 10 10 10 11 12 13 15 15 16 17 15 12 9 11 13 19 19 20 20 21 21 22 23 21 21 22 24 20 19 28
9 9 9 10 10 10 11 12 13 14 14 18 16 18 9 7 11 11 15 18 18 18 18 18 19 21 20 19 20 19 15 21 20
9 9 10 10 10 10 11 11 12 14 13 15 17 11 9 1 9 10 13 19 18 21 19 16 17 17 15 8 10 8 6 8 12
10 10 10 10 10 10 10 11 11 12 12 10 12 5 6 6 10 10 11 12 18 19 20 20 18 17 12 10 6 8 16 9 9
11 11 10 11 10 10 10 10 10 11 12 9 4 4 3 11 6 15 12 13 13 15 16 18 20 20 17 18 13 5 1 2 2
11 10 10 10 10 11 10 9 9 10 12 11 5 8 9 3 5 10 22 17 14 10 12 15 14 12 13 16 16 17 4 3 3
10 9 10 10 10 10 10 10 10 10 11 11 11 11 11 14 4 7 12 17 19 12 10 9 12 13 10 13 14 12 18 17 16
Wind_Direction
345 342 337 339 342 341 336 332 322 305 290 286 300 281 273 268 264 262 261 256 247 257 244 229 227 236 229 225 218 219 212 212 207
348 340 337 339 333 330 327 319 319 310 301 293 287 282 279 271 265 264 262 259 252 239 241 231 234 232 233 230 231 223 218 219 215
349 347 345 343 338 332 322 314 309 305 296 292 287 282 280 275 269 263 263 257 249 240 238 234 234 237 240 241 236 231 224 222 221
354 352 345 345 341 336 329 322 314 304 293 288 284 281 279 277 273 269 268 272 256 242 243 240 239 238 238 239 237 236 230 223 219
342 1 329 340 339 336 329 326 321 318 316 308 296 288 282 281 278 265 260 259 263 250 247 247 243 242 242 242 239 235 231 228 220
341 326 350 351 351 345 341 335 336 339 347 332 331 321 300 281 276 275 274 279 262 263 257 254 250 245 241 242 245 235 231 229 222
351 336 349 356 352 353 344 346 356 351 331 328 326 316 306 295 285 278 274 279 278 278 270 274 265 258 249 242 243 239 232 229 219
337 340 342 345 341 348 341 341 341 334 331 324 315 309 307 300 294 289 288 284 284 283 279 278 279 281 263 250 243 240 235 230 220
335 338 343 343 344 345 343 335 331 328 324 320 316 312 309 302 298 294 294 294 291 286 282 279 275 274 273 266 248 240 237 230 222
334 337 341 342 343 344 340 334 331 329 324 322 317 312 307 301 297 296 298 298 296 292 289 284 282 278 272 268 261 244 236 232 224
337 338 338 339 341 339 338 333 329 327 325 319 313 308 304 301 301 304 308 309 306 300 291 288 281 279 276 268 262 259 240 227 222
336 333 333 335 335 334 336 333 329 326 326 319 317 313 307 304 311 316 319 318 313 310 297 288 288 282 275 268 257 266 270 244 222
336 331 331 332 332 333 334 333 330 326 325 320 319 313 308 302 322 327 331 322 318 315 307 295 290 285 275 270 269 271 279 284 244
330 327 327 331 332 333 331 332 329 324 322 321 318 315 306 305 327 330 338 336 325 310 308 296 288 285 274 258 265 269 271 265 258
326 321 320 326 327 329 328 329 328 322 322 323 319 317 300 306 327 345 348 342 343 332 323 308 292 286 281 268 260 266 262 254 264
318 314 314 316 319 319 321 325 327 329 332 327 329 318 304 275 343 345 351 1 1 7 342 332 307 305 273 269 274 228 205 225 305
313 309 307 307 310 312 316 324 328 327 341 335 311 339 318 349 329 345 342 357 5 15 16 19 16 13 55 50 88 109 136 89 115
313 308 304 303 304 305 309 315 322 321 324 337 315 329 324 330 332 331 338 357 348 3 6 4 32 34 47 59 57 75 168 186 282
324 313 309 304 302 300 301 308 310 312 312 325 318 303 284 306 315 323 324 355 337 354 356 358 8 20 25 37 45 49 37 215 67
334 326 316 308 301 296 295 298 298 295 297 306 311 308 302 280 233 306 325 325 333 344 357 349 353 6 26 43 40 38 45 60 69
Height
801 799 798 797 796 795 794 793 792 791 791 791 791 790 791 791 792 792 792 792 793 792 792 794 795 796 797 797 798 800 801 801 802
799 798 797 796 795 794 793 792 791 790 789 789 789 788 788 788 789 789 789 789 790 790 790 791 793 794 794 795 796 797 799 800 801
798 797 796 795 794 792 791 790 789 788 787 787 786 786 786 786 786 786 785 785 786 786 787 788 789 791 792 793 794 794 795 797 799
798 796 795 794 792 791 790 789 787 786 785 784 784 783 783 783 783 783 783 782 783 783 784 785 786 787 788 789 790 791 792 794 795
798 797 794 793 791 790 788 787 785 784 783 782 781 781 780 780 780 779 779 779 779 780 780 781 782 783 784 784 785 786 788 790 792
800 796 794 792 791 789 787 786 784 783 782 781 780 778 777 778 778 777 776 775 775 776 776 777 776 777 777 779 781 782 783 785 788
800 797 795 793 791 789 787 785 783 783 783 781 780 779 778 777 775 774 774 772 772 772 773 772 772 772 772 773 775 776 778 780 783
801 799 797 795 793 790 789 787 785 784 782 781 780 778 777 775 774 772 771 770 769 769 769 768 767 766 766 767 768 770 772 775 778
802 799 797 796 793 791 789 787 785 783 782 780 778 777 775 774 772 770 768 767 766 765 763 762 762 761 761 760 761 763 765 767 771
802 800 797 796 794 791 789 787 785 783 781 778 776 775 773 771 770 767 766 764 762 761 759 758 757 755 754 754 754 754 756 759 762
803 800 798 796 794 792 789 788 785 782 780 778 775 773 771 769 767 765 763 761 759 756 754 753 750 749 748 747 747 746 747 746 750
802 801 799 797 794 792 789 788 785 783 780 777 774 771 769 767 765 763 761 758 756 752 749 748 745 743 741 740 740 737 739 741 745
802 801 799 796 794 792 790 788 785 782 779 776 772 769 767 765 763 762 759 756 753 749 745 743 741 738 735 734 733 733 732 719 724
802 801 798 796 793 792 790 788 785 782 779 775 771 767 765 764 762 761 759 755 751 747 743 740 735 732 730 728 728 728 733 733 733
802 800 798 796 793 791 790 788 785 782 779 775 769 765 763 762 762 760 758 755 751 745 742 737 731 728 728 725 722 722 722 720 730
800 799 797 795 793 791 790 787 785 782 779 774 769 763 761 761 760 759 758 756 751 744 743 736 727 725 723 724 718 717 716 712 710
799 798 796 795 793 790 789 787 785 782 780 777 773 765 760 758 758 758 757 755 752 747 744 737 731 726 725 723 718 714 717 714 718
798 796 795 793 792 790 789 787 785 783 781 779 779 772 769 767 757 758 756 754 753 750 747 742 735 732 728 725 722 719 717 717 713
797 795 794 792 791 790 789 787 785 784 781 779 777 776 774 770 762 759 757 754 753 751 748 745 740 735 732 729 726 724 721 720 717
796 794 792 791 789 788 787 785 784 783 782 779 777 775 772 769 767 760 757 756 754 751 750 749 745 739 735 734 731 728 723 723 725